Location: Bílinka
(49.3579°N, 14.3767°E)
Time: 22:30:32
(UTC+00:00)

PSLV R/B - Pass Details

Date: 24 March 2025
Orbit: 410 x 442 km, 97.7° (Epoch: 28 April)

Event Time Altitude Azimuth Distance (km) Brightness Sun altitude
Exits shadow 19:45:18 26° 16° (NNE) 919 5.1 -22.8°
Drops below altitude 10° 19:47:04 10° 359° (N) 1,579 6.6 -23.1°
Sets 19:49:08 0° 353° (N) 2,445 7.7 -23.3°
